Location: Grasslands National Park East Block
(49.0708°N, 106.5295°W)
Time: 07:32:45
(UTC-06:00)

Vanguard 1 - Pass Details

Date: 26 September 2019
Orbit: 653 x 3830 km, 34.2° (Epoch: 20 October)

Event Time Altitude Azimuth Distance (km) Brightness Sun altitude
Rises 04:59:43 0° 263° (W) 7,892 - -19.8°
Reaches altitude 10° 05:05:19 10° 259° (WSW) 6,933 - -18.9°
Exits shadow 05:11:01 21° 252° (WSW) 5,967 13.3 -18.1°
Maximum altitude 05:26:42 49° 194° (SSW) 3,958 12.9 -15.6°
Drops below altitude 10° 05:41:41 10° 126° (SE) 5,017 14.2 -13.2°
Sets 05:44:59 0° 120° (ESE) 5,662 14.7 -12.7°
